Weather History for KALN - April, 2014

Change the Weather History Date:

Wednesday, April 16, 2014

  Actual Average (KSTL) Record (KSTL)
Temperature  
Mean Temperature 44 °F 58 °F  
Max Temperature 56 °F 68 °F 90 °F (2002)
Min Temperature 32 °F 47 °F 25 °F (1875)
Degree Days  
Heating Degree Days 22 9  
Month to date heating degree days 178  
Since 1 July heating degree days 4364  
Cooling Degree Days 0 1  
Month to date cooling degree days 16  
Year to date cooling degree days 23  
Moisture  
Dew Point 24 °F    
Average Humidity 52    
Maximum Humidity 73    
Minimum Humidity 26    
Precipitation  
Precipitation 0.00 in 0.12 in 1.36 in (1922)
Month to date precipitation 1.91  
Year to date precipitation 9.87  
Snow  
Snow 0.00 in 0.00 in T in (2001)
Month to date snowfall 0.3  
Since 1 July snowfall 17.6  
Snow Depth -    
Sea Level Pressure  
Sea Level Pressure 30.20 in    
Wind  
Wind Speed 9 mph (SSE)    
Max Wind Speed 22 mph    
Max Gust Speed 29 mph    
Visibility 10 miles    
Events      
T = Trace of Precipitation, MM = Missing Value Source: NWS Daily Summary

Daily Weather History Graph

Daily Weather History Graph

Search for Another Location

Airport or City:

Trip Planner

Search our weather history database for the weather conditions in past years. The results will help you decide how hot, cold, wet, or windy it might be!

Date:

Astronomy

Apr. 16, 2014 Rise Set
Actual Time 6:22 AM CDT 7:38 PM CDT
Civil Twilight 5:54 AM CDT 8:05 PM CDT
Nautical Twilight 5:21 AM CDT 8:39 PM CDT
Astronomical Twilight 4:47 AM CDT 9:13 PM CDT
Moon 9:21 PM CDT (4/16) 7:10 AM CDT (4/16)
Length of Visible Light 14h 11m
Length of Day
13h 16m
Full, 98% of the Moon is Illuminated
Apr 16
Full
Apr 22
Last Quarter
Apr 29
New
May 6
First Quarter
May 14
Full

Hourly Weather History & Observations

Time (CDT) Temp. Windchill Dew Point Humidity Pressure Visibility Wind Dir Wind Speed Gust Speed Precip Events Conditions
12:15 AM 33.1 °F 27.7 °F 24.6 °F 71% 30.22 in 10.0 mi SE 5.8 mph - N/A   Clear
12:35 AM 35.2 °F 30.3 °F 23.4 °F 62% 30.22 in 10.0 mi SE 5.8 mph - N/A   Clear
12:55 AM 35.8 °F 30.1 °F 22.6 °F 59% 30.23 in 10.0 mi SSE 6.9 mph - N/A   Clear
1:15 AM 34.3 °F 28.4 °F 23.0 °F 63% 30.23 in 10.0 mi SE 6.9 mph - N/A   Clear
1:35 AM 36.0 °F 31.1 °F 22.5 °F 58% 30.23 in 10.0 mi SSE 5.8 mph - N/A   Clear
1:55 AM 35.6 °F 29.2 °F 22.8 °F 60% 30.23 in 10.0 mi SSE 8.1 mph - N/A   Clear
2:15 AM 36.0 °F 30.3 °F 22.3 °F 58% 30.22 in 10.0 mi SSE 6.9 mph - N/A   Clear
2:35 AM 35.6 °F 30.7 °F 22.6 °F 59% 30.23 in 10.0 mi SSE 5.8 mph - N/A   Clear
2:55 AM 36.1 °F 29.3 °F 21.9 °F 56% 30.23 in 10.0 mi SSE 9.2 mph - N/A   Clear
3:15 AM 35.8 °F 30.1 °F 22.1 °F 58% 30.23 in 10.0 mi SSE 6.9 mph - N/A   Clear
3:35 AM 35.1 °F 30.1 °F 22.1 °F 59% 30.23 in 10.0 mi SSE 5.8 mph - N/A   Clear
3:55 AM 34.7 °F 29.6 °F 22.8 °F 62% 30.23 in 10.0 mi SSE 5.8 mph - N/A   Clear
4:15 AM 34.5 °F 29.4 °F 23.2 °F 63% 30.23 in 10.0 mi SE 5.8 mph - N/A   Clear
4:35 AM 32.4 °F 26.9 °F 23.7 °F 70% 30.23 in 10.0 mi SE 5.8 mph - N/A   Clear
5:15 AM 32.5 °F 26.2 °F 24.3 °F 72% 30.23 in 10.0 mi SE 6.9 mph - N/A   Clear
5:35 AM 32.9 °F 25.9 °F 24.3 °F 71% 30.24 in 10.0 mi SE 8.1 mph - N/A   Clear
5:55 AM 32.5 °F 25.5 °F 24.6 °F 73% 30.24 in 10.0 mi SE 8.1 mph - N/A   Clear
6:15 AM 33.4 °F 25.9 °F 24.3 °F 69% 30.24 in 10.0 mi SE 9.2 mph - N/A   Clear
6:35 AM 33.8 °F 27.0 °F 24.4 °F 69% 30.24 in 10.0 mi SE 8.1 mph - N/A   Clear
6:50 AM 33.8 °F 25.3 °F 23.0 °F 65% 30.24 in 10.0 mi SSE 11.5 mph - N/A   Partly Cloudy
7:50 AM 39.2 °F 29.3 °F 23.0 °F 52% 30.26 in 10.0 mi South 20.7 mph - N/A   Partly Cloudy
8:50 AM 42.8 °F 35.1 °F 23.0 °F 46% 30.26 in 10.0 mi SSE 16.1 mph - N/A   Partly Cloudy
9:50 AM 46.4 °F 39.8 °F 23.0 °F 40% 30.26 in 10.0 mi SSE 16.1 mph - N/A   Scattered Clouds
10:50 AM 48.2 °F - 23.0 °F 37% 30.26 in 10.0 mi South 20.7 mph - N/A   Scattered Clouds
11:50 AM 50.0 °F - 24.8 °F 37% 30.23 in 10.0 mi SSE 21.9 mph 28.8 mph N/A   Scattered Clouds
12:50 PM 51.8 °F - 24.8 °F 35% 30.21 in 10.0 mi SSE 21.9 mph 28.8 mph N/A   Scattered Clouds
1:50 PM 53.6 °F - 24.8 °F 33% 30.18 in 10.0 mi SSE 21.9 mph 28.8 mph N/A   Scattered Clouds
2:50 PM 53.6 °F - 23.0 °F 30% 30.14 in 10.0 mi SE 21.9 mph 27.6 mph N/A   Scattered Clouds
3:50 PM 55.4 °F - 24.8 °F 31% 30.11 in 10.0 mi SE 16.1 mph 25.3 mph N/A   Scattered Clouds
4:50 PM 55.4 °F - 23.0 °F 29% 30.08 in 10.0 mi SSE 21.9 mph 26.5 mph N/A   Scattered Clouds
5:45 PM 55.4 °F - 21.2 °F 26% 30.07 in 10.0 mi SSE 17.3 mph 23.0 mph N/A   Clear
8:45 PM 50.0 °F - 19.4 °F 30% 30.09 in 10.0 mi SSE 6.9 mph - N/A   Clear
9:45 PM 46.4 °F 42.9 °F 24.8 °F 43% 30.14 in 10.0 mi South 6.9 mph - N/A   Clear
10:15 PM 44.8 °F 40.4 °F 26.6 °F 49% 30.15 in 10.0 mi South 8.1 mph - N/A   Clear
10:35 PM 46.0 °F 41.9 °F 26.4 °F 46% 30.15 in 10.0 mi SSE 8.1 mph - N/A   Clear
10:55 PM 45.3 °F 40.6 °F 27.3 °F 49% 30.15 in 10.0 mi South 9.2 mph - N/A   Clear
11:15 PM 45.3 °F 41.1 °F 27.5 °F 50% 30.15 in 10.0 mi South 8.1 mph - N/A   Clear
11:55 PM 44.6 °F 39.7 °F 28.4 °F 53% 30.15 in 10.0 mi SSE 9.2 mph - N/A   Clear